Location: Wangen+im+Allg�u
(47.7098°N, 9.8383°E)
Time: 08:11:00
(UTC+01:00)

ISS - Pass Details

Date: 09 January 2018
Orbit: 401 x 406 km, 51.6° (Epoch: 17 January)

Event Time Altitude Azimuth Distance (km) Brightness Sun altitude
Exits shadow 07:22:57 10° 291° (WNW) 1,477 -1.7 -7.4°
Reaches altitude 10° 07:22:59 10° 291° (WNW) 1,466 -1.7 -7.4°
Maximum altitude 07:26:15 72° 207° (SSW) 431 -3.7 -6.9°
Drops below altitude 10° 07:29:31 10° 123° (ESE) 1,463 0.8 -6.4°
Sets 07:31:36 0° 121° (ESE) 2,321 2.7 -6.1°
